Moline, IL

7:03 PM CST on February 24, 2018 (GMT -0600)
Quad-City International

Weather History for KMLI - June, 2013

Change the Weather History Date:

Saturday, June 8, 2013

  Actual Average Record
Temperature  
Mean Temperature 65 °F 69 °F  
Max Temperature 77 °F 80 °F 98 °F (1963)
Min Temperature 52 °F 59 °F 39 °F (1913)
Degree Days  
Heating Degree Days 0 1  
Month to date heating degree days 27 11  
Since 1 June heating degree days 27 11  
Since 1 July heating degree days 6335 6195  
Cooling Degree Days 0 5  
Month to date cooling degree days 5 37  
Year to date cooling degree days 95 113  
Since 1 June cooling degree days 5 37  
Growing Degree Days 14 (Base 50)    
Moisture  
Dew Point 53 °F    
Average Humidity 70    
Maximum Humidity 93    
Minimum Humidity 46    
Precipitation  
Precipitation 0.00 in 0.15 in 2.55 in (1952)
Month to date precipitation 0.67 1.20  
Year to date precipitation 23.82 15.06  
Snow  
Snow 0.00 in 0.00 in - ()
Month to date snowfall 0.0 0.0  
Since 1 June snowfall 0.0 0.0  
Since 1 July snowfall 34.5 31.6  
Snow Depth 0.00 in    
Sea Level Pressure  
Sea Level Pressure 29.93 in    
Wind  
Wind Speed 5 mph (SE)    
Max Wind Speed 14 mph    
Max Gust Speed 18 mph    
Visibility 10 miles    
Events      
T = Trace of Precipitation, MM = Missing Value Source: NWS Daily Summary

Daily Weather History Graph

Daily Weather History Graph

Search for Another Location

Airport or City:

Trip Planner

Search our weather history database for the weather conditions in past years. The results will help you decide how hot, cold, wet, or windy it might be!

Date:

Astronomy

Jun. 08, 2013 Rise Set
Actual Time 5:28 AM CDT 8:34 PM CDT
Civil Twilight 4:54 AM CDT 9:07 PM CDT
Nautical Twilight 4:11 AM CDT 9:51 PM CDT
Astronomical Twilight 3:20 AM CDT 10:42 PM CDT
Moon 5:36 AM CDT (6/8) 8:36 PM CDT (6/8)
Length of Visible Light 16h 13m
Length of Day
15h 05m
New Moon, 0% of the Moon is Illuminated
Jun 8
New Moon
Jun 16
First Quarter
Jun 23
Full
Jun 29
Last Quarter
Jul 8
New

Hourly Weather History & Observations

Time (CDT) Temp. Dew Point Humidity Pressure Visibility Wind Dir Wind Speed Gust Speed Precip Events Conditions
12:52 AM 55.0 °F 53.1 °F 93% 29.93 in 10.0 mi Calm Calm - N/A   Partly Cloudy
1:52 AM 54.0 °F 52.0 °F 93% 29.93 in 10.0 mi Calm Calm - N/A   Clear
2:52 AM 53.1 °F 51.1 °F 93% 29.94 in 10.0 mi Calm Calm - N/A   Mostly Cloudy
3:52 AM 55.0 °F 52.0 °F 89% 29.93 in 10.0 mi East 3.5 mph - N/A   Overcast
4:52 AM 55.9 °F 52.0 °F 87% 29.93 in 10.0 mi East 3.5 mph - N/A   Overcast
5:52 AM 54.0 °F 52.0 °F 93% 29.94 in 10.0 mi Calm Calm - N/A   Scattered Clouds
6:52 AM 57.0 °F 51.1 °F 81% 29.95 in 10.0 mi Calm Calm - N/A   Scattered Clouds
7:52 AM 60.1 °F 51.1 °F 72% 29.95 in 10.0 mi Calm Calm - N/A   Unknown
8:01 AM 62.6 °F 51.8 °F 68% 29.96 in 10.0 mi Calm Calm - N/A   Clear
8:52 AM 66.0 °F 50.0 °F 56% 29.95 in 10.0 mi SSE 5.8 mph - N/A   Clear
9:52 AM 69.1 °F 51.1 °F 53% 29.96 in 10.0 mi SE 4.6 mph - N/A   Clear
10:52 AM 70.0 °F 52.0 °F 53% 29.95 in 10.0 mi South 4.6 mph - N/A   Clear
11:52 AM 73.0 °F 53.1 °F 49% 29.95 in 10.0 mi South 6.9 mph - N/A   Scattered Clouds
12:52 PM 73.9 °F 53.1 °F 48% 29.93 in 10.0 mi SSW 6.9 mph - N/A   Scattered Clouds
1:52 PM 73.9 °F 52.0 °F 46% 29.92 in 10.0 mi SE 4.6 mph - N/A   Mostly Cloudy
2:52 PM 73.9 °F 51.1 °F 45% 29.93 in 10.0 mi SSE 5.8 mph - N/A   Partly Cloudy
3:52 PM 73.9 °F 52.0 °F 46% 29.92 in 10.0 mi SSW 3.5 mph - N/A   Scattered Clouds
4:52 PM 75.9 °F 53.1 °F 45% 29.91 in 10.0 mi SSE 5.8 mph - N/A   Partly Cloudy
5:52 PM 73.9 °F 53.1 °F 48% 29.92 in 10.0 mi SE 5.8 mph - N/A   Mostly Cloudy
6:52 PM 73.0 °F 55.0 °F 53% 29.91 in 10.0 mi SE 4.6 mph - N/A   Scattered Clouds
7:52 PM 69.1 °F 57.0 °F 65% 29.91 in 10.0 mi ESE 5.8 mph - N/A   Clear
8:52 PM 66.0 °F 55.9 °F 70% 29.91 in 10.0 mi ESE 5.8 mph - N/A   Clear
9:52 PM 64.0 °F 55.0 °F 73% 29.93 in 10.0 mi East 4.6 mph - N/A   Clear
10:52 PM 64.9 °F 55.9 °F 73% 29.93 in 10.0 mi ESE 5.8 mph - N/A   Clear
11:52 PM 66.0 °F 53.1 °F 63% 29.92 in 10.0 mi ESE 10.4 mph - N/A   Clear